TimeMST,TemperatureF,Dew PointF,Humidity,Sea Level PressureIn,VisibilityMPH,Wind Direction,Wind SpeedMPH,Gust SpeedMPH,PrecipitationIn,Events,Conditions,WindDirDegrees,DateUTC
12:53 AM,36.0,24.1,62,30.23,10.0,SW,10.4,-,N/A,,Overcast,220,2012-12-10 07:53:00
1:53 AM,37.0,26.1,65,30.20,10.0,SW,8.1,-,N/A,,Overcast,230,2012-12-10 08:53:00
2:50 AM,35.6,30.2,81,30.17,10.0,SW,10.4,-,0.00,,Overcast,220,2012-12-10 09:50:00
2:53 AM,36.0,30.0,79,30.18,9.0,SW,11.5,-,0.00,,Overcast,230,2012-12-10 09:53:00
3:46 AM,32.0,28.4,87,30.17,4.0,WNW,4.6,-,0.00,Rain,Light Rain,300,2012-12-10 10:46:00
3:51 AM,32.0,28.4,87,30.17,2.0,WNW,4.6,-,0.00,Snow,Light Snow,290,2012-12-10 10:51:00
3:53 AM,32.0,28.0,85,30.19,2.0,WNW,4.6,-,0.00,Snow,Light Snow,290,2012-12-10 10:53:00
3:56 AM,32.0,28.4,87,30.17,1.5,West,4.6,-,0.00,Snow,Light Snow,280,2012-12-10 10:56:00
4:06 AM,32.0,28.4,87,30.16,2.0,West,3.5,-,0.00,Snow,Light Snow,260,2012-12-10 11:06:00
4:17 AM,33.8,28.4,81,30.16,3.0,WSW,4.6,-,0.01,Snow,Light Snow,250,2012-12-10 11:17:00
4:53 AM,34.0,30.0,85,30.17,5.0,WSW,10.4,-,0.01,Snow,Light Snow,250,2012-12-10 11:53:00
5:53 AM,32.0,28.0,85,30.19,4.0,West,8.1,-,0.00,Snow,Light Snow,270,2012-12-10 12:53:00
6:13 AM,32.0,26.6,80,30.15,10.0,West,10.4,-,0.00,,Overcast,260,2012-12-10 13:13:00
6:53 AM,32.0,27.0,82,30.18,4.0,SW,15.0,-,0.00,Snow,Light Snow,230,2012-12-10 13:53:00
7:34 AM,32.0,28.4,87,30.15,1.8,WSW,17.3,-,0.02,Snow,Light Snow,240,2012-12-10 14:34:00
7:53 AM,32.0,28.0,85,30.19,2.0,WSW,17.3,-,0.03,Snow,Light Snow,240,2012-12-10 14:53:00
8:00 AM,32.0,28.4,87,30.16,1.2,WSW,15.0,-,0.00,Snow,Light Snow,250,2012-12-10 15:00:00
8:22 AM,33.8,28.4,81,30.15,3.0,WSW,16.1,-,0.00,Snow,Light Snow,240,2012-12-10 15:22:00
8:29 AM,33.8,28.4,81,30.15,2.5,SW,20.7,25.3,0.00,Snow,Light Snow,230,2012-12-10 15:29:00
8:31 AM,33.8,28.4,81,30.15,4.0,WSW,17.3,25.3,0.00,Snow,Light Snow,240,2012-12-10 15:31:00
8:53 AM,34.0,28.9,82,30.18,4.0,WSW,19.6,26.5,0.00,,Haze,250,2012-12-10 15:53:00
9:53 AM,36.0,30.9,82,30.19,10.0,WSW,21.9,32.2,N/A,,Clear,240,2012-12-10 16:53:00
10:53 AM,37.9,30.0,73,30.21,10.0,WSW,19.6,-,N/A,,Clear,250,2012-12-10 17:53:00
11:53 AM,39.0,30.0,70,30.18,10.0,WSW,21.9,29.9,N/A,,Clear,250,2012-12-10 18:53:00
12:53 PM,39.9,30.9,70,30.16,10.0,WSW,27.6,38.0,N/A,,Clear,240,2012-12-10 19:53:00
1:53 PM,41.0,30.9,67,30.12,10.0,WSW,25.3,36.8,N/A,,Clear,250,2012-12-10 20:53:00
2:53 PM,41.0,30.0,65,30.12,10.0,West,24.2,33.4,N/A,,Clear,260,2012-12-10 21:53:00
3:53 PM,39.0,30.0,70,30.14,10.0,WSW,18.4,25.3,N/A,,Clear,250,2012-12-10 22:53:00
4:53 PM,37.0,28.9,73,30.14,10.0,WSW,12.7,-,N/A,,Clear,250,2012-12-10 23:53:00
5:53 PM,36.0,28.9,76,30.15,10.0,SW,15.0,-,N/A,,Clear,230,2012-12-11 00:53:00
6:53 PM,36.0,28.9,76,30.15,10.0,SSW,10.4,-,N/A,,Scattered Clouds,210,2012-12-11 01:53:00
7:53 PM,35.1,28.0,76,30.15,10.0,SSW,12.7,-,N/A,,Partly Cloudy,210,2012-12-11 02:53:00
8:53 PM,36.0,28.0,73,30.13,10.0,SW,15.0,-,N/A,,Mostly Cloudy,220,2012-12-11 03:53:00
9:53 PM,37.0,28.9,73,30.12,10.0,South,13.8,-,N/A,,Overcast,190,2012-12-11 04:53:00
10:53 PM,37.0,28.9,73,30.10,10.0,SSW,15.0,-,N/A,,Mostly Cloudy,210,2012-12-11 05:53:00
11:53 PM,37.9,28.0,68,30.08,10.0,SW,18.4,26.5,N/A,,Clear,230,2012-12-11 06:53:00